Date String (YYYY-MM-DD hh:mm:ss) UTC,Instrument flags,Ambient pressure (hPa),Sample flow (lpm),Bypass flow (lpm),Sample temperature (°C),Ambient temperature (°C),ASC tube jacket temperature (°C),LED temperature (°C),Box temperature (°C),Sample RH (%),Span deviation,Mass concentration (μg/m³),Mass concentration (μg/m³),Mass concentration (μg/m³)
DateTimeUTC,F1_M11,P_M11,Q1_M11,Q2_M11,T1_M11,T2_M11,T3_M11,T4_M11,T5_M11,U1_M11,ZSPAN_M11,X0_M11,X2_M11,X1_M11
2023-05-01 17:00:00,,0828.5,4.99,0.00,27.1,25.8,00.0,35.5,28.7,14.7,0000.0,0013.90,0005.48,0004.09
2023-05-01 17:01:00,,0828.5,5.00,0.00,27.1,25.8,00.0,35.5,28.7,15.0,0000.0,0014.07,0005.49,0004.11
2023-05-01 17:02:00,,0828.5,5.00,0.00,27.1,25.8,00.0,35.5,28.6,14.8,0000.0,0014.39,0005.49,0004.11
2023-05-01 17:03:00,,0828.5,5.00,0.00,27.2,25.8,00.0,35.5,28.6,14.9,0000.0,0014.48,0005.46,0004.12
2023-05-01 17:04:00,,0828.6,5.00,0.00,27.2,25.8,00.0,35.5,28.7,14.8,0000.0,0014.44,0005.50,0004.13
2023-05-01 17:05:00,,0828.6,5.01,0.00,27.2,25.9,00.0,35.5,28.7,14.7,0000.0,0014.40,0005.50,0004.14
2023-05-01 17:06:00,,0828.6,5.00,0.00,27.2,25.9,00.0,35.5,28.7,14.8,0000.0,0014.76,0005.51,0004.16
2023-05-01 17:07:00,,0828.6,5.00,0.00,27.2,25.9,00.0,35.5,28.7,14.8,0000.0,0014.58,0005.54,0004.18
2023-05-01 17:08:00,,0828.6,4.99,0.00,27.2,25.9,00.0,35.5,28.8,14.8,0000.0,0014.36,0005.54,0004.19
2023-05-01 17:09:00,,0828.6,4.99,0.00,27.2,25.9,00.0,35.5,28.7,14.8,0000.0,0013.64,0005.55,0004.21
2023-05-01 17:10:00,,0828.5,5.00,0.00,27.2,25.9,00.0,35.5,28.7,14.8,0000.0,0012.99,0005.53,0004.23
2023-05-01 17:11:00,,0828.5,5.00,0.00,27.2,25.9,00.0,35.5,28.7,14.8,0000.0,0013.02,0005.58,0004.25
2023-05-01 17:12:00,,0828.4,5.00,0.00,27.2,25.9,00.0,35.6,28.7,15.0,0000.0,0012.67,0005.60,0004.25
2023-05-01 17:13:00,,0828.4,5.00,0.00,27.2,26.0,00.0,35.6,28.8,15.1,0000.0,0013.15,0005.62,0004.29
2023-05-01 17:14:00,,0828.4,5.00,0.00,27.3,26.0,00.0,35.6,28.8,15.0,0000.0,0014.46,0005.70,0004.32
2023-05-01 17:15:00,,0828.4,5.00,0.00,27.3,26.1,00.0,35.6,28.8,15.0,0000.0,0015.22,0005.74,0004.35
2023-05-01 17:16:00,,0828.4,5.00,0.00,27.3,26.1,00.0,35.6,28.8,15.2,0000.0,0016.01,0005.80,0004.39
2023-05-01 17:17:00,,0828.4,5.00,0.00,27.3,26.1,00.0,35.6,28.9,15.0,0000.0,0015.55,0005.80,0004.40
2023-05-01 17:18:00,,0828.4,5.00,0.00,27.4,26.1,00.0,35.6,28.9,15.0,0000.0,0016.47,0005.87,0004.43
2023-05-01 17:19:00,,0828.4,4.99,0.00,27.4,26.2,00.0,35.6,28.9,15.0,0000.0,0016.91,0005.90,0004.46
2023-05-01 17:20:00,,0828.4,4.99,0.00,27.4,26.2,00.0,35.7,29.0,15.2,0000.0,0017.24,0005.87,0004.47
2023-05-01 17:21:00,,0828.5,5.00,0.00,27.4,26.2,00.0,35.7,29.0,15.0,0000.0,0017.14,0005.89,0004.49
2023-05-01 17:22:00,,0828.5,5.00,0.00,27.4,26.2,00.0,35.7,29.1,14.9,0000.0,0017.23,0005.92,0004.51
2023-05-01 17:23:00,,0828.5,5.00,0.00,27.5,26.3,00.0,35.7,29.1,15.0,0000.0,0017.27,0005.97,0004.55
2023-05-01 17:24:00,,0828.5,5.00,0.00,27.5,26.3,00.0,35.7,29.0,15.1,0000.0,0017.00,0006.00,0004.57
2023-05-01 17:25:00,,0828.5,5.00,0.00,27.5,26.3,00.0,35.7,29.1,14.8,0000.0,0015.81,0006.01,0004.59
2023-05-01 17:26:00,,0828.4,5.00,0.00,27.5,26.3,00.0,35.8,29.1,14.9,0000.0,0015.10,0006.04,0004.60
2023-05-01 17:27:00,,0828.4,4.99,0.00,27.5,26.3,00.0,35.8,29.1,14.8,0000.0,0013.52,0006.06,0004.60
2023-05-01 17:28:00,,0828.4,5.00,0.00,27.6,26.4,00.0,35.8,29.1,14.9,0000.0,0013.74,0006.07,0004.61
2023-05-01 17:29:00,,0828.4,5.00,0.00,27.6,26.4,00.0,35.8,29.1,14.9,0000.0,0012.99,0006.04,0004.62
2023-05-01 17:30:00,,0828.4,5.00,0.00,27.6,26.4,00.0,35.8,29.1,14.8,0000.0,0012.89,0006.07,0004.64
2023-05-01 17:31:00,,0828.4,5.00,0.00,27.6,26.4,00.0,35.8,29.1,14.8,0000.0,0013.54,0006.12,0004.66
2023-05-01 17:32:00,,0828.3,5.00,0.00,27.6,26.4,00.0,35.9,29.2,14.6,0000.0,0014.44,0006.15,0004.69
2023-05-01 17:33:00,,0828.3,5.00,0.00,27.6,26.4,00.0,35.9,29.2,14.9,0000.0,0014.83,0006.12,0004.69
2023-05-01 17:34:00,,0828.4,5.01,0.00,27.6,26.4,00.0,35.9,29.2,14.9,0000.0,0015.33,0006.07,0004.69
2023-05-01 17:35:00,,0828.4,5.00,0.00,27.6,26.4,00.0,35.9,29.2,14.8,0000.0,0015.33,0006.08,0004.72
2023-05-01 17:36:00,,0828.4,5.00,0.00,27.6,26.4,00.0,35.9,29.2,14.9,0000.0,0015.29,0006.15,0004.73
2023-05-01 17:37:00,,0828.4,5.00,0.00,27.6,26.4,00.0,35.9,29.2,15.1,0000.0,0016.22,0006.15,0004.75
2023-05-01 17:38:00,,0828.4,5.00,0.00,27.6,26.4,00.0,35.9,29.2,15.0,0000.0,0017.01,0006.10,0004.76
2023-05-01 17:39:00,,0828.4,5.00,0.00,27.7,26.4,00.0,35.9,29.3,14.9,0000.0,0016.92,0006.11,0004.79
2023-05-01 17:40:00,,0828.4,5.00,0.00,27.7,26.5,00.0,36.0,29.2,14.9,0000.0,0017.47,0006.12,0004.81
2023-05-01 17:41:00,,0828.4,5.00,0.00,27.7,26.5,00.0,36.0,29.2,15.0,0000.0,0017.35,0006.15,0004.83
2023-05-01 17:42:00,,0828.4,5.01,0.00,27.7,26.5,00.0,36.0,29.3,15.0,0000.0,0016.76,0006.20,0004.86
2023-05-01 17:43:00,,0828.4,4.98,0.00,27.7,26.5,00.0,36.0,29.3,15.1,0000.0,0016.45,0006.25,0004.89
2023-05-01 17:44:00,,0828.4,5.00,0.00,27.7,26.5,00.0,36.0,29.2,14.9,0000.0,0015.73,0006.29,0004.92
2023-05-01 17:45:00,,0828.3,5.01,0.00,27.7,26.5,00.0,36.0,29.3,14.8,0000.0,0015.32,0006.36,0004.95
2023-05-01 17:46:00,,0828.3,4.99,0.00,27.8,26.5,00.0,36.0,29.3,14.8,0000.0,0015.19,0006.44,0004.97
2023-05-01 17:47:00,,0828.4,5.02,0.00,27.8,26.5,00.0,36.1,29.3,14.9,0000.0,0015.29,0006.45,0004.99
2023-05-01 17:48:00,,0828.4,4.98,0.00,27.8,26.5,00.0,36.1,29.3,15.2,0000.0,0015.25,0006.44,0005.00
2023-05-01 17:49:00,,0828.3,5.00,0.00,27.8,26.6,00.0,36.1,29.3,15.3,0000.0,0014.44,0006.49,0005.01
2023-05-01 17:50:00,,0828.4,5.01,0.00,27.8,26.6,00.0,36.1,29.3,15.2,0000.0,0014.55,0006.50,0005.01
2023-05-01 17:51:00,,0828.4,5.01,0.00,27.8,26.6,00.0,36.1,29.3,15.1,0000.0,0013.78,0006.52,0005.02
2023-05-01 17:52:00,,0828.3,5.00,0.00,27.8,26.6,00.0,36.1,29.3,15.0,0000.0,0013.65,0006.50,0005.04
2023-05-01 17:53:00,,0828.3,5.00,0.00,27.8,26.6,00.0,36.1,29.4,15.1,0000.0,0013.98,0006.52,0005.04
2023-05-01 17:54:00,,0828.3,5.00,0.00,27.8,26.6,00.0,36.1,29.3,15.1,0000.0,0014.65,0006.55,0005.05
2023-05-01 17:55:00,,0828.3,5.00,0.00,27.8,26.6,00.0,36.1,29.4,15.1,0000.0,0015.17,0006.60,0005.07
2023-05-01 17:56:00,,0828.3,4.99,0.00,27.8,26.6,00.0,36.1,29.4,15.0,0000.0,0015.90,0006.63,0005.08
2023-05-01 17:57:00,,0828.4,4.99,0.00,27.8,26.6,00.0,36.2,29.4,15.3,0000.0,0016.12,0006.59,0005.10
2023-05-01 17:58:00,,0828.3,5.01,0.00,27.8,26.6,00.0,36.2,29.4,15.3,0000.0,0016.09,0006.59,0005.11
2023-05-01 17:59:00,,0828.3,4.98,0.00,27.9,26.6,00.0,36.2,29.4,15.2,0000.0,0015.86,0006.59,0005.13
